Weather reports worldwide

Advertisment
Baruth, Germany (10376): temperature & dewpoint: 18.01.2020 02:00:00 - 24.01.2020 02:00:00 (CET)Baruth, Germany (10376): temperature 5cm & temperature -5cm: 18.01.2020 02:00:00 - 24.01.2020 02:00:00 (CET)Baruth, Germany (10376): temperature -20cm & temperature -100cm: 18.01.2020 02:00:00 - 24.01.2020 02:00:00 (CET)Baruth, Germany (10376): wind speed & gusts: 18.01.2020 02:00:00 - 24.01.2020 02:00:00 (CET)Baruth, Germany (10376): wind direction: 18.01.2020 02:00:00 - 24.01.2020 02:00:00 (CET)Baruth, Germany (10376): reduced air pressure: 18.01.2020 02:00:00 - 24.01.2020 02:00:00 (CET)Baruth, Germany (10376): visibility: 18.01.2020 02:00:00 - 24.01.2020 02:00:00 (CET)Baruth, Germany (10376): sunshine duration: 18.01.2020 02:00:00 - 24.01.2020 02:00:00 (CET)Baruth, Germany (10376): precipitation: 18.01.2020 02:00:00 - 24.01.2020 02:00:00 (CET)
Date & Time tt [°C] td [°C] tt 5cm [°C] tt -5cm [°C] tt -20cm [°C] tt -100cm [°C] ff [km/h] ff [kn] fx [km/h] fx [kn] dd ppp [hPa] vv [km] sd [min] rr [mm]
24.01.2020 02:00:00 -4,7 -5,1 -7,1 0,0 2,3 5,5 4 2 7 4 ESE 1026,6 8 0 0,0
24.01.2020 01:00:00 -3,6 -3,8 -6,5 0,2 2,5 5,5 5 3 8 4 ESE 1027,2 8 0 0,0
24.01.2020 00:00:00 -3,0 -3,2 -5,6 0,3 2,6 5,5 5 3 6 4 E 1028,0 9 0 0,0
23.01.2020 23:00:00 -3,2 -3,6 -5,9 0,5 2,8 5,5 5 3 7 4 ESE 1028,4 6 0 0,0
23.01.2020 22:00:00 -2,3 -2,6 -4,1 0,8 3,1 5,5 3 2 4 2 SE 1028,9 10 0 0,0
23.01.2020 21:00:00 -0,5 -1,4 -3,3 1,1 3,3 5,5 3 1 8 4 WSW 1029,2 16 0 0,0
23.01.2020 20:00:00 0,1 -1,0 -3,3 1,4 3,5 5,5 5 3 8 4 SSW 1029,6 18 0 0,0
23.01.2020 19:00:00 2,1 -0,2 -0,2 2,5 3,7 5,5 3 2 13 7 S 1030,1 23 0 0,0
23.01.2020 18:00:00 3,5 0,0 2,6 3,2 3,8 5,5 9 5 14 8 SSW 1030,0 27 0 0,0
23.01.2020 17:00:00 4,0 0,5 2,9 3,8 3,8 5,5 7 4 13 7 SSW 1030,5 27 0 0,0
23.01.2020 16:00:00 4,8 0,7 4,5 4,3 3,7 5,5 10 5 19 11 WSW 1031,3 29 0 0,0
23.01.2020 15:00:00 5,1 0,4 5,2 4,7 3,6 5,5 11 6 18 10 SW 1031,6 34 0 0,0
23.01.2020 14:00:00 5,3 1,5 5,4 4,8 3,3 5,5 11 6 16 9 SW 1032,5 29 0 0,0
23.01.2020 13:00:00 5,1 1,3 5,1 4,5 3,1 5,5 11 6 14 8 SW 1033,2 26 0 0,0
23.01.2020 12:00:00 4,7 1,7 4,5 3,7 2,9 5,5 10 6 13 7 SW 1033,9 18 0 0,0
23.01.2020 11:00:00 4,4 2,1 4,0 3,1 2,7 5,5 6 3 10 6 SW 1034,6 15 0 0,0
23.01.2020 10:00:00 3,7 2,4 3,0 2,4 2,6 5,5 6 3 9 5 WSW 1034,9 11 0 0,0
23.01.2020 09:00:00 2,8 1,9 2,3 2,0 2,6 5,5 5 3 10 5 WSW 1035,0 10 0 0,0
23.01.2020 08:00:00 2,3 1,8 1,6 1,9 2,6 5,5 4 2 6 4 SSW 1034,9 9 0 0,0
23.01.2020 07:00:00 2,7 1,7 1,8 1,8 2,6 5,5 3 2 10 6 WSW 1035,0 18 0 0,0
23.01.2020 06:00:00 1,9 1,9 1,5 1,8 2,6 5,5 4 2 7 4 SW 1034,9 4,6 0 0,0
23.01.2020 05:00:00 2,0 2,0 1,5 1,7 2,6 5,5 2 1 7 4 W 1035,0 5 0 0,0
23.01.2020 04:00:00 2,1 2,1 1,3 1,6 2,6 5,5 4 2 8 4 WSW 1034,9 9 0 0,0
23.01.2020 03:00:00 1,5 1,5 1,0 1,5 2,7 5,5 2 1 5 3 S 1035,3 4,2 0 0,0
23.01.2020 02:00:00 1,3 1,3 0,2 1,2 2,8 5,5 2 1 5 3 SSE 1035,5 3,8 0 0,0
23.01.2020 01:00:00 0,5 0,5 -0,3 1,0 3,0 5,5 4 2 7 4 SSW 1035,6 0,5 0 0,0
23.01.2020 00:00:00 2,2 2,0 -1,1 1,6 3,2 5,5 4 2 14 8 W 1035,3 4,7 0 0,0
22.01.2020 23:00:00 3,0 2,5 1,3 2,6 3,2 5,5 12 7 16 9 W 1034,8 7 0 0,0
22.01.2020 22:00:00 4,0 3,1 3,1 3,0 3,2 5,5 11 6 17 9 W 1034,5 14 0 0,0
22.01.2020 21:00:00 4,5 3,5 3,9 3,1 3,2 5,5 10 5 14 8 W 1034,3 17 0 0,0
22.01.2020 20:00:00 4,4 3,3 3,8 3,1 3,1 5,5 9 5 16 9 W 1033,8 16 0 0,0
22.01.2020 19:00:00 4,6 3,3 4,0 3,2 3,1 5,5 12 6 18 10 W 1033,3 22 0 0,0
22.01.2020 18:00:00 4,8 3,8 4,1 3,3 3,0 5,5 11 6 22 12 WNW 1032,6 16 0 0,0
22.01.2020 17:00:00 4,7 3,7 4,1 3,4 2,9 5,6 14 8 26 14 W 1031,9 13 0 0,0
22.01.2020 16:00:00 4,7 3,9 4,2 3,5 2,8 5,6 18 10 26 14 W 1031,1 13 0 0,0
22.01.2020 15:00:00 4,7 4,0 4,4 3,4 2,6 5,6 16 9 27 14 W 1031,2 12 0 0,0
22.01.2020 14:00:00 4,2 4,1 4,2 3,2 2,4 5,6 16 9 24 13 W 1031,1 4,7 0 0,1
22.01.2020 13:00:00 3,5 3,3 3,5 2,9 2,2 5,6 17 9 23 13 W 1031,3 3,2 0 0,0
22.01.2020 12:00:00 3,0 2,8 3,0 2,4 2,1 5,6 18 10 28 15 W 1031,9 2,8 0 0,0
22.01.2020 11:00:00 2,6 2,5 2,6 2,1 1,9 5,6 17 9 27 15 W 1032,1 2,5 0 0,0
22.01.2020 10:00:00 2,1 1,9 2,1 1,6 1,8 5,6 18 10 26 14 W 1031,9 2,2 0 0,0
22.01.2020 09:00:00 1,9 1,7 1,8 1,3 1,7 5,6 18 10 27 14 W 1031,9 3,0 0 0,1
22.01.2020 08:00:00 1,6 1,4 1,4 1,0 1,7 5,6 17 9 24 13 W 1032,0 2,2 0 0,0
22.01.2020 07:00:00 1,5 0,8 1,3 0,7 1,6 5,7 18 10 32 17 W 1031,8 2,0 0 0,0
22.01.2020 06:00:00 1,5 0,3 1,2 0,3 1,6 5,7 18 10 29 16 W 1032,3 3,4 0 0,0
22.01.2020 05:00:00 2,1 0,3 1,8 0,2 1,6 5,7 18 10 34 18 W 1032,2 6 0 0,0
22.01.2020 04:00:00 2,4 0,0 2,1 0,2 1,6 5,7 21 12 36 20 W 1033,1 10 0 0,0
22.01.2020 03:00:00 2,4 -0,2 2,1 0,2 1,6 5,7 22 12 33 18 W 1033,9 11 0 0,0
22.01.2020 02:00:00 1,9 -0,8 1,6 0,2 1,6 5,7 19 10 27 15 W 1034,4 13 0 0,0
22.01.2020 01:00:00 1,7 -1,2 1,3 0,2 1,7 5,7 16 9 26 14 W 1035,0 19 0 0,0
22.01.2020 00:00:00 0,9 -1,7 0,5 0,1 1,7 5,7 18 10 24 13 W 1036,2 24 0 0,0
21.01.2020 23:00:00 0,8 -2,2 -0,6 0,2 1,8 5,7 18 10 25 13 W 1036,4 33 0 0,0
21.01.2020 22:00:00 -0,3 -2,3 -1,8 0,3 1,9 5,7 14 8 24 13 W 1036,5 26 0 0,0
21.01.2020 21:00:00 0,8 -1,9 -0,6 0,4 2,0 5,8 18 10 23 12 W 1036,8 28 0 0,0
21.01.2020 20:00:00 2,2 -1,5 0,8 0,4 2,0 5,8 14 8 27 15 WSW 1036,9 36 0 0,0
21.01.2020 19:00:00 1,9 -1,4 0,2 0,5 2,2 5,8 13 7 23 12 WSW 1037,1 30 0 0,0
21.01.2020 18:00:00 2,2 -1,5 0,7 0,6 2,3 5,8 16 9 21 12 WSW 1037,7 33 0 0,0
21.01.2020 17:00:00 2,5 -1,0 0,9 1,4 2,3 5,8 13 7 21 12 WSW 1038,1 32 23 0,0
21.01.2020 16:00:00 4,3 -0,5 3,5 2,4 2,1 5,8 16 9 23 12 WSW 1038,4 33 60 0,0
21.01.2020 15:00:00 5,2 -0,2 5,5 2,6 1,8 5,8 13 7 23 12 WSW 1038,8 32 60 0,0
21.01.2020 14:00:00 5,8 0,2 6,4 1,4 1,5 5,8 16 8 29 15 W 1039,8 32 60 0,0
21.01.2020 13:00:00 5,3 -0,6 5,2 0,1 1,5 5,8 16 9 24 13 W 1040,4 34 60 0,0
21.01.2020 12:00:00 4,3 -0,1 4,6 -0,1 1,5 5,8 16 8 24 13 WSW 1040,9 31 60 0,0
21.01.2020 11:00:00 2,8 -0,7 3,4 -0,2 1,5 5,8 12 6 19 10 WSW 1041,5 26 60 0,0
21.01.2020 10:00:00 0,7 -1,6 0,2 -0,4 1,6 5,9 7 4 14 8 WSW 1041,8 20 60 0,0
21.01.2020 09:00:00 -0,8 -2,5 -2,2 -0,7 1,7 5,9 12 6 16 9 WSW 1041,7 20 34 0,0
21.01.2020 08:00:00 -1,7 -3,0 -4,0 -0,7 1,8 5,9 11 6 16 9 WSW 1041,7 18 0 0,0
21.01.2020 07:00:00 -1,0 -2,4 -3,0 -0,5 1,8 5,9 13 7 18 10 W 1042,1 23 0 0,0
21.01.2020 06:00:00 -1,9 -3,3 -4,5 -0,4 1,9 5,9 9 5 13 7 WSW 1042,4 18 0 0,0
21.01.2020 05:00:00 -1,3 -2,5 -4,8 -0,2 2,0 5,9 7 4 19 10 WSW 1042,8 17 0 0,0
21.01.2020 04:00:00 0,0 -2,0 -2,0 -0,2 2,1 5,9 13 7 21 11 SW 1042,9 21 0 0,0
21.01.2020 03:00:00 -1,0 -2,4 -3,2 -0,1 2,3 5,9 10 6 16 9 WSW 1043,8 20 0 0,0
21.01.2020 02:00:00 -1,1 -2,1 -4,1 0,1 2,4 5,9 7 4 18 10 W 1044,4 14 0 0,0
21.01.2020 01:00:00 -1,8 -2,5 -4,9 0,2 2,6 5,9 9 5 16 8 WSW 1044,9 15 0 0,0
21.01.2020 00:00:00 -2,3 -2,6 -5,3 0,4 2,7 5,9 9 5 14 7 SSW 1045,2 11 0 0,0
20.01.2020 23:00:00 -2,1 -2,4 -5,1 0,5 2,9 5,9 3 2 5 3 SSE 1046,0 8 0 0,0
20.01.2020 22:00:00 -1,8 -1,8 -3,9 0,8 3,2 5,9 2 1 4 2 SSW 1046,3 9 0 0,0
20.01.2020 21:00:00 -1,1 -1,4 -4,2 1,1 3,4 5,9 3 2 6 3 S 1046,3 8 0 0,0
20.01.2020 20:00:00 0,2 -0,2 -2,4 1,8 3,5 5,9 4 2 15 8 SW 1046,2 11 0 0,0
20.01.2020 19:00:00 2,4 1,2 2,2 2,6 3,6 5,9 11 6 16 9 SW 1046,2 19 0 0,0
20.01.2020 18:00:00 1,6 1,1 1,6 2,7 3,7 5,9 10 6 18 10 WSW 1046,5 9 0 0,0
20.01.2020 17:00:00 1,5 0,7 1,4 2,8 3,9 5,9 11 6 19 10 WSW 1046,6 10 7 0,0
20.01.2020 16:00:00 2,6 0,2 1,8 3,8 3,9 5,9 9 5 16 9 WSW 1046,4 22 41 0,0
20.01.2020 15:00:00 4,0 1,3 4,2 4,7 3,7 5,9 10 5 18 10 W 1046,6 25 0 0,0
20.01.2020 14:00:00 4,4 1,1 5,0 4,8 3,4 5,9 6 4 18 10 WNW 1046,9 22 31 0,0
20.01.2020 13:00:00 5,4 1,0 6,1 4,7 2,9 5,9 12 7 17 9 W 1046,9 25 60 0,0
20.01.2020 12:00:00 4,4 0,9 5,5 3,4 2,6 5,9 10 6 19 11 W 1046,7 21 60 0,0
20.01.2020 11:00:00 2,7 -0,1 3,7 1,2 2,6 5,9 13 7 18 10 W 1047,0 21 60 0,0
20.01.2020 10:00:00 1,4 -0,4 1,2 0,6 2,7 5,9 6 4 10 6 W 1046,7 18 60 0,0
20.01.2020 09:00:00 -0,7 -1,3 -2,8 0,7 2,9 5,9 7 4 9 5 W 1046,1 7 10 0,0
20.01.2020 08:00:00 0,0 -0,1 -3,0 1,0 3,1 5,9 6 4 9 5 W 1045,3 12 0 0,0
20.01.2020 07:00:00 1,1 0,6 -2,1 1,3 3,2 5,9 8 4 10 6 W 1044,9 19 0 0,0
20.01.2020 06:00:00 2,3 1,2 0,8 2,1 3,3 6,0 6 3 9 5 W 1044,8 25 0 0,0
20.01.2020 05:00:00 2,3 1,7 1,2 2,2 3,4 6,0 4 2 7 4 W 1044,4 22 0 0,0
20.01.2020 04:00:00 2,3 1,3 0,2 2,3 3,4 6,0 4 2 6 4 W 1043,7 23 0 0,0
20.01.2020 03:00:00 2,9 2,3 2,1 2,7 3,4 6,0 4 2 6 4 WSW 1043,4 20 0 0,0
20.01.2020 02:00:00 3,2 2,3 2,5 2,7 3,4 6,0 5 3 8 5 W 1043,2 21 0 0,0
20.01.2020 01:00:00 3,3 2,2 2,7 2,7 3,5 6,0 5 3 8 4 WNW 1042,8 23 0 0,0
20.01.2020 00:00:00 3,2 2,4 2,5 2,7 3,5 6,0 5 3 8 4 W 1042,3 22 0 0,0
19.01.2020 23:00:00 3,1 2,3 2,4 2,7 3,5 6,0 4 2 8 4 WNW 1042,0 22 0 0,0
19.01.2020 22:00:00 2,5 2,2 2,1 2,7 3,5 6,0 2 1 7 4 WSW 1041,1 16 0 0,0
19.01.2020 21:00:00 2,6 2,0 2,1 2,7 3,6 6,0 4 2 6 3 W 1040,5 16 0 0,0
19.01.2020 20:00:00 2,2 1,6 1,9 2,7 3,6 6,0 4 2 5 3 W 1039,6 15 0 0,0
19.01.2020 19:00:00 2,6 2,1 2,0 2,7 3,7 6,0 2 1 5 3 N 1039,0 17 0 0,0
19.01.2020 18:00:00 2,4 1,8 1,0 2,8 3,8 6,0 3 1 5 3 WSW 1038,3 17 0 0,0
19.01.2020 17:00:00 3,0 2,0 0,7 3,1 3,8 6,0 3 1 6 3 NNW 1037,4 20 0 0,0
19.01.2020 16:00:00 3,7 2,0 1,8 3,6 3,9 6,0 4 2 11 6 NNW 1036,4 24 21 0,0
19.01.2020 15:00:00 5,1 2,0 5,1 4,4 3,7 6,0 5 3 19 10 NW 1035,2 28 27 0,0
19.01.2020 14:00:00 5,0 1,8 5,0 5,1 3,4 6,0 11 6 19 11 WNW 1034,9 26 42 0,0
19.01.2020 13:00:00 4,1 1,9 4,3 4,4 3,1 6,1 6 3 23 12 NW 1034,3 24 2 0,0
19.01.2020 12:00:00 4,0 2,2 4,5 3,6 2,9 6,1 10 5 22 12 WNW 1033,9 25 0 0,0
19.01.2020 11:00:00 3,7 2,4 3,8 3,0 2,7 6,1 14 7 22 12 WNW 1033,5 17 0 0,0
19.01.2020 10:00:00 3,3 2,4 3,2 2,3 2,6 6,1 11 6 17 9 W 1032,4 12 0 0,0
19.01.2020 09:00:00 2,7 1,9 2,4 1,6 2,5 6,1 11 6 16 9 W 1031,5 11 0 0,0
19.01.2020 08:00:00 2,1 1,4 1,7 1,2 2,5 6,1 10 5 16 9 W 1030,7 12 0 0,1
19.01.2020 07:00:00 1,7 0,8 1,1 0,9 2,6 6,1 12 6 18 10 W 1029,8 13 0 0,0
19.01.2020 06:00:00 1,9 0,9 0,7 0,9 2,7 6,1 9 5 16 9 W 1029,0 15 0 0,0
19.01.2020 05:00:00 2,6 1,3 1,8 1,5 2,7 6,1 12 6 18 10 W 1028,3 17 0 0,0
19.01.2020 04:00:00 2,5 1,2 1,7 1,4 2,7 6,1 12 7 18 10 W 1027,7 20 0 0,0
19.01.2020 03:00:00 2,7 1,4 1,9 1,2 2,7 6,1 11 6 14 8 WSW 1027,4 23 0 0,0
19.01.2020 02:00:00 2,8 1,6 1,8 0,7 2,7 6,1 10 5 15 8 WSW 1026,9 24 0 0,3
19.01.2020 01:00:00 2,4 1,4 1,3 0,7 2,9 6,1 8 4 22 12 W 1026,4 24 0 0,1
19.01.2020 00:00:00 0,7 0,2 -1,2 0,7 3,0 6,1 6 4 10 6 W 1026,1 36 0 0,0
18.01.2020 23:00:00 -0,4 -1,3 -3,8 0,9 3,2 6,1 7 4 12 7 WSW 1025,6 34 0 0,0
18.01.2020 22:00:00 1,6 -0,2 -1,8 1,0 3,4 6,1 9 5 15 8 WSW 1025,3 48 0 0,0
18.01.2020 21:00:00 2,8 0,1 0,9 1,8 3,5 6,1 12 7 23 12 WSW 1025,1 43 0 0,0
18.01.2020 20:00:00 4,6 1,2 3,8 2,1 3,7 6,1 13 7 24 13 WSW 1024,9 51 0 0,0
18.01.2020 19:00:00 2,7 0,2 0,0 1,6 3,9 6,1 7 4 12 7 WSW 1024,6 49 0 0,0
18.01.2020 18:00:00 3,4 1,0 0,0 2,2 4,1 6,1 8 5 12 6 WSW 1024,5 53 0 0,0
18.01.2020 17:00:00 3,9 0,7 0,8 3,6 4,2 6,2 10 5 20 11 WSW 1023,9 51 0 0,0
18.01.2020 16:00:00 6,0 1,8 5,3 4,4 4,2 6,2 14 8 26 14 WSW 1023,5 60 4 0,0
18.01.2020 15:00:00 6,6 2,1 6,0 4,9 4,0 6,2 15 8 29 16 WSW 1023,2 51 23 0,0
18.01.2020 14:00:00 6,3 2,0 5,9 4,7 3,8 6,2 16 9 31 17 WSW 1023,4 58 0 0,0
18.01.2020 13:00:00 6,6 1,6 6,4 4,8 3,5 6,2 23 13 34 18 WSW 1023,2 49 20 0,0
18.01.2020 12:00:00 7,0 1,5 7,6 4,0 3,2 6,2 19 10 28 15 WSW 1023,4 54 25 0,0
18.01.2020 11:00:00 4,9 1,3 4,1 2,4 3,2 6,2 11 6 21 12 W 1023,5 39 0 0,0
18.01.2020 10:00:00 3,7 0,8 2,1 1,6 3,3 6,2 14 7 19 10 WSW 1023,6 43 0 0,0
18.01.2020 09:00:00 3,1 0,7 1,2 1,5 3,4 6,2 11 6 20 11 WSW 1023,1 45 0 0,0
18.01.2020 08:00:00 3,8 1,1 1,2 2,3 3,5 6,2 12 6 18 10 WSW 1022,4 40 0 0,0
18.01.2020 07:00:00 4,2 2,6 2,6 2,1 3,6 6,2 11 6 15 8 WSW 1021,5 19 0 0,0
18.01.2020 06:00:00 4,4 3,2 2,0 2,5 3,7 6,2 11 6 25 13 WSW 1020,9 15 0 0,0
18.01.2020 05:00:00 5,4 3,9 3,5 2,9 3,7 6,2 16 9 24 13 WSW 1020,1 17 0 0,0
18.01.2020 04:00:00 5,7 4,4 3,8 3,6 3,7 6,2 13 7 22 12 WSW 1019,6 16 0 0,0
18.01.2020 03:00:00 6,5 5,2 5,6 3,7 3,5 6,2 15 8 23 13 WSW 1019,1 15 0 0,0
18.01.2020 02:00:00 6,3 5,2 5,5 3,6 3,4 6,3 16 9 23 12 WSW 1018,2 11 0 0,3

tt = temperature
td = dewpoint
tt 5cm = temperature 5cm
tt -5cm = temperature -5cm
tt -20cm = temperature -20cm
tt -100cm = temperature -100cm
ff = wind speed
fx = gusts
dd = wind direction
ppp = reduced air pressure
vv = visibility
sd = sunshine duration
rr = precipitation

Next stations